This demonstration page uses our WeatherBlox Daily Observations layout. Learn more.

Left ArrowRight Arrow

Hourly Observations for December 8, 2021

Temp ( °F °C ) Dew Point ( °F °C ) Humidity (%) Winds ( mph kmh ) Pressure ( in mb ) Visibility ( mi km ) Precip ( " mm )
12:15 am 00:15 Cloudy 32 undefined 17 -8.1 55 55 N N/A 30.01 1016 10 16 N/A
12:35 am 00:35 Cloudy 32 0.2 17 -8.3 53 53 WSW 3 6 30.00 1016 10 16 N/A
12:55 am 00:55 Partly Cloudy 31 -0.6 17 -8.5 56 56 SW 3 6 30.01 1016 10 16 N/A
1:15 am 01:15 Clear 30 -1 17 -8.6 57 57 N N/A 30.00 1016 10 16 N/A
1:35 am 01:35 Clear 29 -1.6 17 -8.6 59 59 SW 5 7 30.01 1016 10 16 N/A
1:55 am 01:55 Clear 29 -1.8 17 -8.6 60 60 WSW 3 6 30.01 1016 10 16 N/A
2:15 am 02:15 Clear 31 -0.8 17 -8.5 56 56 WSW 5 7 29.99 1016 10 16 N/A
2:35 am 02:35 Clear 31 -0.3 17 -8.6 54 54 SW 5 7 29.99 1015 10 16 N/A
2:55 am 02:55 Clear 31 -0.8 16 -9 54 54 SW 6 9 29.99 1016 10 16 N/A
3:15 am 03:15 Clear 30 -1.1 16 -8.9 56 56 SW 7 11 30.00 1016 10 16 N/A
3:35 am 03:35 Clear 30 -1 16 -9 55 55 SW 6 9 29.98 1015 10 16 N/A
3:55 am 03:55 Clear 29 -1.6 16 -9.1 57 57 SW 6 9 29.99 1016 10 16 N/A
4:15 am 04:15 Clear 29 -1.6 16 -9 57 57 SW 8 13 29.99 1016 10 16 N/A
4:35 am 04:35 Clear 29 -1.4 16 -9 57 57 WSW 7 11 29.99 1016 10 16 N/A
4:55 am 04:55 Clear 30 -1 16 -9 55 55 WSW 6 9 29.98 1015 10 16 N/A
5:15 am 05:15 Clear 29 -1.4 16 -9 57 57 W 6 9 29.99 1016 10 16 N/A
5:35 am 05:35 Clear 29 -1.5 16 -9 57 57 W 8 13 29.98 1015 10 16 N/A
5:55 am 05:55 Clear 29 -1.7 16 -8.7 59 59 W 7 11 29.99 1016 10 16 N/A
6:15 am 06:15 Clear 28 -2 16 -8.8 60 60 W 7 11 29.99 1016 10 16 N/A
6:35 am 06:35 Clear 27 -3 16 -8.8 65 65 W 7 11 30.02 1017 10 16 N/A
6:55 am 06:55 Clear 26 -3.2 16 -9 65 65 W 7 11 30.02 1016 10 16 N/A
7:15 am 07:15 Clear 25 -3.8 16 -9 68 68 W 6 9 30.01 1016 10 16 N/A
7:35 am 07:35 Clear 26 -3.6 16 -8.9 67 67 W 7 11 30.01 1016 10 16 N/A
7:55 am 07:55 Sunny 26 -3.2 16 -8.7 66 66 W 6 9 30.02 1016 10 16 N/A
8:15 am 08:15 Sunny 27 -2.7 17 -8.4 65 65 N N/A 30.01 1016 10 16 N/A
8:35 am 08:35 Sunny 29 -1.8 18 -8 63 63 WSW 3 6 30.01 1016 10 16 N/A
8:55 am 08:55 Sunny 32 undefined 19 -7.5 57 57 W 5 7 29.99 1016 10 16 N/A
9:15 am 09:15 Sunny 33 0.7 19 -7.4 55 55 N N/A 29.99 1016 10 16 N/A
9:35 am 09:35 Sunny 35 1.9 20 -6.9 52 52 N N/A 29.98 1015 10 16 N/A
9:55 am 09:55 Sunny 38 3.3 20 -6.6 49 49 N N/A 29.96 1015 10 16 N/A
10:15 am 10:15 Sunny 41 4.8 21 -5.9 46 46 N N/A 29.95 1014 10 16 N/A
10:35 am 10:35 Sunny 43 6 22 -5.8 43 43 N N/A 29.93 1013 10 16 N/A
10:55 am 10:55 Sunny 46 7.5 23 -5.1 41 41 SSE 5 7 29.90 1012 10 16 N/A
11:15 am 11:15 Sunny 48 8.8 23 -4.8 38 38 SE 5 7 29.86 1011 10 16 N/A
11:35 am 11:35 Sunny 50 9.8 24 -4.2 37 37 SE 8 13 29.83 1010 10 16 N/A
11:55 am 11:55 Sunny 53 11.4 26 -3.6 35 35 SE 8 13 29.81 1009 10 16 N/A
12:15 pm 12:15 Sunny 54 12.3 26 -3.3 34 34 SSE 12 19 29.78 1009 10 16 N/A
12:35 pm 12:35 Sunny 56 13.3 26 -3.2 32 32 SSE 14 22 29.76 1008 10 16 N/A
12:55 pm 12:55 Sunny 56 13.6 25 -3.8 30 30 S 16 26 29.76 1008 10 16 N/A
1:15 pm 13:15 Sunny 56 13.5 24 -4.2 29 29 S 16 26 29.74 1007 10 16 N/A
1:35 pm 13:35 Sunny 56 13.2 25 -4.1 30 30 SSE 14 22 29.73 1007 10 16 N/A
1:55 pm 13:55 Sunny 57 13.7 25 -4 29 29 SSE 14 22 29.70 1006 10 16 N/A
2:15 pm 14:15 Sunny 56 13.5 24 -4.5 29 29 SSE 14 22 29.68 1005 10 16 N/A
2:35 pm 14:35 Sunny 56 13.5 24 -4.5 29 29 SE 16 26 29.66 1004 10 16 N/A
2:55 pm 14:55 Sunny 56 13.3 24 -4.5 29 29 SSE 16 26 29.64 1004 10 16 N/A
3:15 pm 15:15 Sunny 55 12.7 24 -4.5 30 30 S 16 26 29.65 1004 10 16 N/A
3:35 pm 15:35 Sunny 53 11.9 24 -4.5 32 32 SSE 14 22 29.64 1004 10 16 N/A
3:55 pm 15:55 Sunny 52 11 24 -4.5 34 34 SSE 14 22 29.63 1004 10 16 N/A
4:15 pm 16:15 Sunny 51 10.5 24 -4.5 35 35 SSE 13 20 29.63 1003 10 16 N/A
4:35 pm 16:35 Sunny 50 10 24 -4.5 36 36 SSE 15 24 29.62 1003 10 16 N/A
4:55 pm 16:55 Sunny 50 10 24 -4.5 36 36 S 13 20 29.62 1003 10 16 N/A
5:15 pm 17:15 Clear 50 9.8 24 -4.5 37 37 SSE 12 19 29.61 1003 10 16 N/A
5:35 pm 17:35 Clear 48 9 24 -4.7 38 38 SSE 8 13 29.62 1003 10 16 N/A
5:55 pm 17:55 Clear 49 9.4 24 -4.7 37 37 SSE 8 13 29.61 1003 10 16 N/A
6:15 pm 18:15 Clear 48 9.1 23 -4.9 37 37 S 9 15 29.62 1003 10 16 N/A
6:35 pm 18:35 Clear 48 8.7 23 -4.8 38 38 SSE 5 7 29.61 1003 10 16 N/A
6:55 pm 18:55 Clear 47 8.6 23 -5 38 38 SSE 7 11 29.61 1003 10 16 N/A
7:15 pm 19:15 Clear 48 9 23 -5 37 37 SSE 9 15 29.59 1002 10 16 N/A
7:35 pm 19:35 Clear 48 8.7 23 -5 38 38 SSE 12 19 29.57 1001 10 16 N/A
8:15 pm 20:15 Clear 47 8.6 23 -4.9 38 38 SSE 12 19 29.57 1001 10 16 N/A
11:15 pm 23:15 Mostly Cloudy 44 6.8 26 -3.5 48 48 SSE 5 7 29.51 999 10 16 N/A
11:35 pm 23:35 Clear 43 6.2 26 -3.4 51 51 SSE 7 11 29.51 999 10 16 N/A
11:55 pm 23:55 Clear 42 5.5 26 -3.5 53 53 S 8 13 29.52 1000 10 16 N/A

Powered by AerisWeather